TimePDT,TemperatureF,Dew PointF,Humidity,Sea Level PressureIn,VisibilityMPH,Wind Direction,Wind SpeedMPH,Gust SpeedMPH,PrecipitationIn,Events,Conditions,WindDirDegrees,DateUTC
12:00 AM,46.4,46.4,100,30.20,1.5,WNW,3.5,-,N/A,,Overcast,300,2013-10-21 07:00:00
1:00 AM,46.4,46.4,100,30.19,1.5,North,4.6,-,N/A,,Overcast,10,2013-10-21 08:00:00
2:00 AM,46.4,46.4,100,30.19,3.0,North,3.5,-,N/A,,Overcast,360,2013-10-21 09:00:00
3:00 AM,46.4,44.6,93,30.20,1.2,North,6.9,-,N/A,,Overcast,350,2013-10-21 10:00:00
4:00 AM,46.4,46.4,100,30.19,1.0,NW,4.6,-,N/A,,Overcast,320,2013-10-21 11:00:00
5:00 AM,46,46,100,30.19,1,WNW,5.8,,,,Mist,300,2013-10-21 12:00:00
5:00 AM,46.4,46.4,100,30.18,1.0,WNW,5.8,-,N/A,,Overcast,300,2013-10-21 12:00:00
6:00 AM,46.4,44.6,93,30.18,1.0,NNE,4.6,-,N/A,,Overcast,30,2013-10-21 13:00:00
6:12 AM,46.4,44.6,93,30.18,1.2,NNE,2.3,-,N/A,,Overcast,20,2013-10-21 13:12:00
7:00 AM,46.4,46.4,100,30.18,1.0,North,3.5,-,N/A,,Overcast,350,2013-10-21 14:00:00
8:00 AM,46.4,46.4,100,30.19,1.0,NNE,4.6,-,N/A,,Overcast,20,2013-10-21 15:00:00
9:00 AM,46.4,46.4,100,30.19,1.0,NNE,4.6,-,N/A,,Overcast,30,2013-10-21 16:00:00
9:41 AM,46.4,46.4,100,30.20,1.0,NW,2.3,-,N/A,,Overcast,310,2013-10-21 16:41:00
10:00 AM,46.4,46.4,100,30.20,1.0,WNW,3.5,-,N/A,,Overcast,300,2013-10-21 17:00:00
11:00 AM,47,47,98,30.21,1,WNW,2.3,,,,Mist,290,2013-10-21 18:00:00
11:00 AM,48.2,46.4,93,30.20,1.0,NE,4.6,-,N/A,,Overcast,40,2013-10-21 18:00:00
12:00 PM,46.4,46.4,100,30.20,1.5,West,4.6,-,N/A,,Overcast,280,2013-10-21 19:00:00
12:43 PM,48.2,46.4,93,30.19,2.5,West,2.3,-,N/A,,Overcast,270,2013-10-21 19:43:00
1:00 PM,48.2,46.4,93,30.19,3.0,Calm,Calm,-,N/A,,Overcast,0,2013-10-21 20:00:00
2:00 PM,51.8,48.2,88,30.16,4.0,Calm,Calm,-,N/A,,Partly Cloudy,0,2013-10-21 21:00:00
3:00 PM,50.0,48.2,94,30.15,5.0,NE,4.6,-,N/A,,Mostly Cloudy,50,2013-10-21 22:00:00
4:00 PM,50.0,48.2,94,30.14,6.0,ENE,3.5,-,N/A,,Mostly Cloudy,60,2013-10-21 23:00:00
5:00 PM,49,48,93,30.14,6,ENE,4.6,,,,Mist,60,2013-10-22 00:00:00
5:00 PM,48.2,48.2,100,30.14,6.0,East,4.6,-,N/A,,Overcast,80,2013-10-22 00:00:00
5:45 PM,48.2,48.2,100,30.13,2.5,NE,5.8,-,N/A,,Overcast,40,2013-10-22 00:45:00
6:00 PM,48.2,48.2,100,30.13,2.0,East,3.5,-,N/A,,Overcast,80,2013-10-22 01:00:00
7:00 PM,48.2,46.4,93,30.13,1.0,ENE,3.5,-,N/A,,Overcast,60,2013-10-22 02:00:00
7:36 PM,48.2,48.2,100,30.13,0.8,Variable,2.3,-,N/A,,Overcast,0,2013-10-22 02:36:00
7:45 PM,48.2,48.2,100,30.13,0.4,Calm,Calm,-,N/A,Fog,Fog,0,2013-10-22 02:45:00
8:00 PM,48.2,48.2,100,30.13,0.4,Calm,Calm,-,N/A,Fog,Fog,0,2013-10-22 03:00:00
8:43 PM,46.4,46.4,100,30.14,0.2,ENE,2.3,-,N/A,Fog,Fog,60,2013-10-22 03:43:00
9:00 PM,46.4,46.4,100,30.14,0.2,Variable,2.3,-,N/A,Fog,Fog,0,2013-10-22 04:00:00
9:12 PM,46.4,46.4,100,30.14,0.1,North,3.5,-,N/A,Fog,Fog,360,2013-10-22 04:12:00
10:00 PM,46.4,46.4,100,30.15,0.1,NNW,3.5,-,N/A,Fog,Fog,340,2013-10-22 05:00:00
11:00 PM,46,46,100,30.16,0,North,2.3,,,Fog,Heavy Fog,10,2013-10-22 06:00:00
11:00 PM,46.4,46.4,100,30.15,0.1,North,2.3,-,N/A,Fog,Fog,350,2013-10-22 06:00:00